Time,TemperatureF,DewpointF,PressureIn,WindDirection,WindDirectionDegrees,WindSpeedMPH,WindSpeedGustMPH,Humidity,HourlyPrecipIn,Conditions,Clouds,dailyrainin,SoftwareType,DateUTC
2013-01-21 00:01:00,23.8,14.0,30.19,WNW,298,1.0,3.0,67,0.00,,,0.00,weatherlink.com 1.10,2013-01-21 05:01:00,
2013-01-21 00:16:00,23.5,14.0,30.18,NW,309,0.0,3.0,68,0.00,,,0.00,weatherlink.com 1.10,2013-01-21 05:16:00,
2013-01-21 00:31:00,23.0,15.0,30.18,NNW,340,1.0,4.0,70,0.00,,,0.00,weatherlink.com 1.10,2013-01-21 05:31:00,
2013-01-21 00:46:00,22.9,15.0,30.18,WNW,286,1.0,2.0,71,0.00,,,0.00,weatherlink.com 1.10,2013-01-21 05:46:00,
2013-01-21 01:01:00,23.0,16.0,30.17,NNW,328,0.0,5.0,73,0.00,,,0.00,weatherlink.com 1.10,2013-01-21 06:01:00,
2013-01-21 01:16:00,23.0,16.0,30.16,NNW,341,2.0,4.0,74,0.00,,,0.00,weatherlink.com 1.10,2013-01-21 06:16:00,
2013-01-21 01:46:00,22.8,16.0,30.16,NNW,340,1.0,3.0,76,0.00,,,0.00,weatherlink.com 1.10,2013-01-21 06:46:00,
2013-01-21 02:01:00,22.8,17.0,30.16,NW,319,0.0,2.0,77,0.00,,,0.00,weatherlink.com 1.10,2013-01-21 07:01:00,
2013-01-21 02:16:00,22.7,17.0,30.16,WNW,302,3.0,3.0,77,0.00,,,0.00,weatherlink.com 1.10,2013-01-21 07:16:00,
2013-01-21 02:31:00,22.6,17.0,30.17,NW,310,4.0,7.0,78,0.00,,,0.00,weatherlink.com 1.10,2013-01-21 07:31:00,
2013-01-21 02:46:00,22.5,17.0,30.17,West,269,0.0,3.0,78,0.00,,,0.00,weatherlink.com 1.10,2013-01-21 07:46:00,
2013-01-21 03:16:00,22.2,17.0,30.17,NW,308,2.0,5.0,79,0.00,,,0.00,weatherlink.com 1.10,2013-01-21 08:16:00,
2013-01-21 04:01:00,21.8,16.0,30.17,NW,315,1.0,6.0,79,0.00,,,0.00,weatherlink.com 1.10,2013-01-21 09:01:00,
2013-01-21 04:31:00,21.8,16.0,30.16,West,271,1.0,5.0,79,0.00,,,0.00,weatherlink.com 1.10,2013-01-21 09:31:00,
2013-01-21 04:46:00,21.7,16.0,30.17,WNW,286,7.0,7.0,78,0.00,,,0.00,weatherlink.com 1.10,2013-01-21 09:46:00,
2013-01-21 05:02:00,21.6,16.0,30.16,NW,316,1.0,8.0,78,0.00,,,0.00,weatherlink.com 1.10,2013-01-21 10:02:00,
2013-01-21 05:17:00,21.5,16.0,30.16,West,278,0.0,6.0,78,0.00,,,0.00,weatherlink.com 1.10,2013-01-21 10:17:00,
2013-01-21 05:47:00,21.3,15.0,30.17,West,276,1.0,6.0,78,0.00,,,0.00,weatherlink.com 1.10,2013-01-21 10:47:00,
2013-01-21 06:02:00,20.9,15.0,30.17,WSW,256,0.0,6.0,77,0.00,,,0.00,weatherlink.com 1.10,2013-01-21 11:02:00,
2013-01-21 06:17:00,20.3,14.0,30.16,NW,322,2.0,6.0,78,0.00,,,0.00,weatherlink.com 1.10,2013-01-21 11:17:00,
2013-01-21 06:32:00,20.0,14.0,30.16,WNW,300,1.0,4.0,78,0.00,,,0.00,weatherlink.com 1.10,2013-01-21 11:32:00,
2013-01-21 06:47:00,19.5,14.0,30.17,WNW,296,0.0,7.0,78,0.00,,,0.00,weatherlink.com 1.10,2013-01-21 11:47:00,
2013-01-21 07:02:00,19.3,14.0,30.16,West,263,1.0,5.0,79,0.00,,,0.00,weatherlink.com 1.10,2013-01-21 12:02:00,
2013-01-21 07:17:00,19.6,14.0,30.18,West,274,0.0,6.0,80,0.00,,,0.00,weatherlink.com 1.10,2013-01-21 12:17:00,
2013-01-21 07:32:00,19.4,13.0,30.18,NW,305,3.0,9.0,77,0.00,,,0.00,weatherlink.com 1.10,2013-01-21 12:32:00,
2013-01-21 07:47:00,18.9,13.0,30.18,NW,322,4.0,9.0,78,0.00,,,0.00,weatherlink.com 1.10,2013-01-21 12:47:00,
2013-01-21 08:02:00,18.9,13.0,30.18,WNW,296,0.0,7.0,78,0.00,,,0.00,weatherlink.com 1.10,2013-01-21 13:02:00,
2013-01-21 08:17:00,19.0,14.0,30.18,West,281,1.0,5.0,80,0.00,,,0.00,weatherlink.com 1.10,2013-01-21 13:17:00,
2013-01-21 08:32:00,19.0,14.0,30.18,West,277,2.0,12.0,79,0.00,,,0.00,weatherlink.com 1.10,2013-01-21 13:32:00,
2013-01-21 08:47:00,18.8,13.0,30.18,NNE,16,3.0,7.0,78,0.00,,,0.00,weatherlink.com 1.10,2013-01-21 13:47:00,
2013-01-21 09:02:00,18.8,12.0,30.18,NW,307,2.0,11.0,76,0.00,,,0.00,weatherlink.com 1.10,2013-01-21 14:02:00,
2013-01-21 09:17:00,18.3,12.0,30.18,WNW,296,2.0,12.0,75,0.00,,,0.00,weatherlink.com 1.10,2013-01-21 14:17:00,
2013-01-21 09:32:00,18.2,12.0,30.19,WNW,297,2.0,11.0,75,0.00,,,0.00,weatherlink.com 1.10,2013-01-21 14:32:00,
2013-01-21 09:47:00,18.1,11.0,30.19,WNW,293,5.0,10.0,74,0.00,,,0.00,weatherlink.com 1.10,2013-01-21 14:47:00,
2013-01-21 10:02:00,17.7,10.0,30.20,West,280,2.0,13.0,73,0.00,,,0.00,weatherlink.com 1.10,2013-01-21 15:02:00,
2013-01-21 10:17:00,17.9,10.0,30.19,WNW,298,3.0,15.0,71,0.00,,,0.00,weatherlink.com 1.10,2013-01-21 15:17:00,
2013-01-21 10:32:00,17.8,9.0,30.20,WNW,302,4.0,12.0,67,0.00,,,0.00,weatherlink.com 1.10,2013-01-21 15:32:00,
2013-01-21 10:47:00,17.8,8.0,30.20,NNW,330,5.0,12.0,66,0.00,,,0.00,weatherlink.com 1.10,2013-01-21 15:47:00,
2013-01-21 11:02:00,18.1,9.0,30.21,West,278,3.0,9.0,67,0.00,,,0.00,weatherlink.com 1.10,2013-01-21 16:02:00,
2013-01-21 11:17:00,18.5,10.0,30.21,West,278,3.0,11.0,68,0.00,,,0.00,weatherlink.com 1.10,2013-01-21 16:17:00,
2013-01-21 11:32:00,18.8,10.0,30.21,WNW,302,3.0,10.0,68,0.00,,,0.00,weatherlink.com 1.10,2013-01-21 16:32:00,
2013-01-21 11:47:00,18.2,9.0,30.20,West,278,2.0,12.0,68,0.00,,,0.00,weatherlink.com 1.10,2013-01-21 16:47:00,
2013-01-21 12:02:00,18.4,12.0,30.20,NNE,23,1.0,10.0,76,0.00,,,0.00,weatherlink.com 1.10,2013-01-21 17:02:00,
2013-01-21 12:17:00,18.9,12.0,30.20,North,353,3.0,13.0,73,0.00,,,0.00,weatherlink.com 1.10,2013-01-21 17:17:00,
2013-01-21 12:32:00,18.6,8.0,30.20,NNW,348,11.0,14.0,64,0.00,,,0.00,weatherlink.com 1.10,2013-01-21 17:32:00,
2013-01-21 12:47:00,19.6,8.0,30.19,ENE,61,6.0,15.0,60,0.00,,,0.00,weatherlink.com 1.10,2013-01-21 17:47:00,
2013-01-21 13:02:00,20.4,6.0,30.19,NNW,338,4.0,13.0,55,0.00,,,0.00,weatherlink.com 1.10,2013-01-21 18:02:00,
2013-01-21 13:17:00,20.9,5.0,30.19,West,278,3.0,15.0,51,0.00,,,0.00,weatherlink.com 1.10,2013-01-21 18:17:00,
2013-01-21 13:32:00,19.8,5.0,30.19,NW,319,6.0,14.0,52,0.00,,,0.00,weatherlink.com 1.10,2013-01-21 18:32:00,
2013-01-21 13:47:00,22.0,7.0,30.19,WNW,300,2.0,8.0,52,0.00,,,0.00,weatherlink.com 1.10,2013-01-21 18:47:00,
2013-01-21 14:02:00,21.5,5.0,30.19,West,274,3.0,10.0,49,0.00,,,0.00,weatherlink.com 1.10,2013-01-21 19:02:00,
2013-01-21 14:17:00,18.9,4.0,30.20,West,274,3.0,11.0,53,0.00,,,0.00,weatherlink.com 1.10,2013-01-21 19:17:00,
2013-01-21 14:32:00,19.3,5.0,30.20,NW,319,3.0,16.0,55,0.00,,,0.00,weatherlink.com 1.10,2013-01-21 19:32:00,
2013-01-21 14:47:00,18.6,4.0,30.20,NW,324,2.0,12.0,52,0.00,,,0.00,weatherlink.com 1.10,2013-01-21 19:47:00,
2013-01-21 15:02:00,18.6,3.0,30.20,North,352,5.0,16.0,51,0.00,,,0.00,weatherlink.com 1.10,2013-01-21 20:02:00,
2013-01-21 15:17:00,19.8,3.0,30.20,NW,311,6.0,10.0,48,0.00,,,0.00,weatherlink.com 1.10,2013-01-21 20:17:00,
2013-01-21 15:32:00,20.3,3.0,30.21,West,278,0.0,11.0,48,0.00,,,0.00,weatherlink.com 1.10,2013-01-21 20:32:00,
2013-01-21 15:47:00,19.3,1.0,30.21,WNW,293,3.0,9.0,45,0.00,,,0.00,weatherlink.com 1.10,2013-01-21 20:47:00,
2013-01-21 16:02:00,18.3,2.0,30.21,West,276,4.0,12.0,48,0.00,,,0.00,weatherlink.com 1.10,2013-01-21 21:02:00,
2013-01-21 16:17:00,17.6,2.0,30.21,WNW,283,2.0,12.0,50,0.00,,,0.00,weatherlink.com 1.10,2013-01-21 21:17:00,
2013-01-21 16:32:00,17.2,2.0,30.22,WNW,302,2.0,9.0,51,0.00,,,0.00,weatherlink.com 1.10,2013-01-21 21:32:00,
2013-01-21 16:47:00,16.8,2.0,30.23,NW,324,3.0,14.0,52,0.00,,,0.00,weatherlink.com 1.10,2013-01-21 21:47:00,
2013-01-21 17:03:00,16.3,3.0,30.23,WSW,252,1.0,8.0,55,0.00,,,0.00,weatherlink.com 1.10,2013-01-21 22:03:00,
2013-01-21 17:18:00,15.9,3.0,30.23,WSW,245,1.0,7.0,56,0.00,,,0.00,weatherlink.com 1.10,2013-01-21 22:18:00,
2013-01-21 17:33:00,14.9,2.0,30.24,NW,319,4.0,14.0,58,0.00,,,0.00,weatherlink.com 1.10,2013-01-21 22:33:00,
2013-01-21 17:48:00,14.3,2.0,30.24,NW,307,2.0,8.0,59,0.00,,,0.00,weatherlink.com 1.10,2013-01-21 22:48:00,
2013-01-21 18:03:00,13.9,2.0,30.24,WNW,290,1.0,7.0,60,0.00,,,0.00,weatherlink.com 1.10,2013-01-21 23:03:00,
2013-01-21 18:18:00,13.5,2.0,30.25,NW,310,3.0,8.0,60,0.00,,,0.00,weatherlink.com 1.10,2013-01-21 23:18:00,
2013-01-21 18:33:00,13.2,2.0,30.25,NW,305,1.0,7.0,61,0.00,,,0.00,weatherlink.com 1.10,2013-01-21 23:33:00,
2013-01-21 18:48:00,12.9,2.0,30.26,NW,319,2.0,12.0,61,0.00,,,0.00,weatherlink.com 1.10,2013-01-21 23:48:00,
2013-01-21 19:03:00,12.8,1.0,30.26,WNW,302,7.0,10.0,59,0.00,,,0.00,weatherlink.com 1.10,2013-01-22 00:03:00,
2013-01-21 19:18:00,12.7,1.0,30.27,WNW,288,1.0,10.0,59,0.00,,,0.00,weatherlink.com 1.10,2013-01-22 00:18:00,
2013-01-21 19:33:00,12.5,1.0,30.27,NNW,330,6.0,8.0,59,0.00,,,0.00,weatherlink.com 1.10,2013-01-22 00:33:00,
2013-01-21 19:48:00,12.2,0.0,30.27,NW,307,7.0,8.0,59,0.00,,,0.00,weatherlink.com 1.10,2013-01-22 00:48:00,
2013-01-21 20:03:00,12.1,0.0,30.27,West,278,3.0,9.0,59,0.00,,,0.00,weatherlink.com 1.10,2013-01-22 01:03:00,
2013-01-21 20:18:00,11.7,0.0,30.28,West,267,1.0,11.0,60,0.00,,,0.00,weatherlink.com 1.10,2013-01-22 01:18:00,
2013-01-21 20:33:00,11.4,0.0,30.28,WNW,296,0.0,6.0,61,0.00,,,0.00,weatherlink.com 1.10,2013-01-22 01:33:00,
2013-01-21 20:48:00,11.0,1.0,30.28,NNW,330,4.0,6.0,63,0.00,,,0.00,weatherlink.com 1.10,2013-01-22 01:48:00,
2013-01-21 21:03:00,10.9,1.0,30.28,WNW,297,1.0,6.0,64,0.00,,,0.00,weatherlink.com 1.10,2013-01-22 02:03:00,
2013-01-21 21:18:00,10.7,1.0,30.29,NW,305,3.0,4.0,64,0.00,,,0.00,weatherlink.com 1.10,2013-01-22 02:18:00,
2013-01-21 21:33:00,10.5,1.0,30.29,NW,322,0.0,3.0,65,0.00,,,0.00,weatherlink.com 1.10,2013-01-22 02:33:00,
2013-01-21 21:49:00,10.1,1.0,30.29,NNW,328,2.0,3.0,67,0.00,,,0.00,weatherlink.com 1.10,2013-01-22 02:49:00,
2013-01-21 22:04:00,10.4,1.0,30.29,NW,311,1.0,6.0,65,0.00,,,0.00,weatherlink.com 1.10,2013-01-22 03:04:00,
2013-01-21 22:19:00,10.6,1.0,30.30,WNW,293,0.0,5.0,65,0.00,,,0.00,weatherlink.com 1.10,2013-01-22 03:19:00,
2013-01-21 22:34:00,10.8,0.0,30.29,WNW,288,0.0,6.0,62,0.00,,,0.00,weatherlink.com 1.10,2013-01-22 03:34:00,
2013-01-21 22:49:00,11.0,0.0,30.29,WNW,292,2.0,6.0,61,0.00,,,0.00,weatherlink.com 1.10,2013-01-22 03:49:00,
2013-01-21 23:04:00,11.3,0.0,30.29,NNW,331,2.0,7.0,60,0.00,,,0.00,weatherlink.com 1.10,2013-01-22 04:04:00,
2013-01-21 23:19:00,11.4,0.0,30.30,West,278,1.0,9.0,61,0.00,,,0.00,weatherlink.com 1.10,2013-01-22 04:19:00,
2013-01-21 23:34:00,11.5,0.0,30.30,WSW,255,2.0,10.0,59,0.00,,,0.00,weatherlink.com 1.10,2013-01-22 04:34:00,
2013-01-21 23:49:00,11.2,-1.0,30.30,NW,310,1.0,11.0,59,0.00,,,0.00,weatherlink.com 1.10,2013-01-22 04:49:00,